Terug naar catalogus

STARLINK-31392

ActiefCommunicatieVLEO
NORAD 59530·PAYLOAD·🇺🇸 United States

Gelanceerd Apr 17, 2024 vanaf Cape Canaveral Space Force Station

Loading…

Volgende Passages (komende 24 uur)

TLE

VersSource: CelesTrak SupGP

Epoch: Sep 15, 2026, 02:49 UTC

1 59530C 24073V   26258.11784722  .00045632  00000+0  16524-2 0  2580
2 59530  43.0021 328.2723 0001327 264.9364 167.2769 15.27564072    16

Volg STARLINK-31392 in realtime met AllMySat

Download on the App Store